CW5078 Weather Reports


Display with metric or nautical units.
time (UTC)temp
F
wind
direction
speed
MPH
gust
MPH
rain 1hr
in
rain 24hr
in
rain mn
in
humidity
%
barometer
mb
20180816121252 78 142 0.0 0.0 0.00 0.00 0.00 91 1015.7
20180816115751 78 142 0.0 0.0 0.00 0.00 0.00 91 1015.5
20180816115251 78 142 0.0 2.0 0.00 0.00 0.00 91 1015.3
20180816114751 78 177 0.0 0.0 0.00 0.00 0.00 90 1015.3
20180816114251 78 178 0.0 0.0 0.00 0.00 0.00 90 1015.1
20180816113751 78 178 0.0 0.0 0.00 0.00 0.00 90 1015.0
20180816113251 78 178 0.0 1.0 0.00 0.00 0.00 90 1015.0
20180816112251 78 178 1.0 2.0 0.00 0.00 0.00 90 1014.8
20180816111251 78 190 0.0 0.0 0.00 0.00 0.00 90 1014.8
20180816105752 78 190 0.0 3.0 0.00 0.00 0.00 89 1014.5
20180816105251 78 173 0.0 1.0 0.00 0.00 0.00 89 1014.4
20180816104751 78 173 1.0 5.0 0.00 0.00 0.00 89 1014.4
20180816104252 79 187 0.0 1.0 0.00 0.00 0.00 89 1014.4
20180816103251 79 196 1.0 3.0 0.00 0.00 0.00 89 1014.3
20180816102751 79 184 0.0 3.0 0.00 0.00 0.00 89 1014.3
20180816102251 79 165 0.0 2.0 0.00 0.00 0.00 88 1014.2
20180816101751 79 174 1.0 3.0 0.00 0.00 0.00 88 1014.2
20180816101252 79 187 1.0 3.0 0.00 0.00 0.00 88 1014.1
20180816100751 79 199 1.0 3.0 0.00 0.00 0.00 88 1014.1
20180816100251 79 163 0.0 1.0 0.00 0.00 0.00 88 1014.0
20180816095751 79 169 1.0 2.0 0.00 0.00 0.00 88 1013.9
20180816095251 79 137 0.0 3.0 0.00 0.00 0.00 88 1014.0
20180816093751 79 209 1.0 6.0 0.00 0.00 0.00 87 1013.8
20180816092251 79 202 0.0 5.0 0.00 0.00 0.00 87 1013.7
20180816091751 80 202 0.0 3.0 0.00 0.00 0.00 86 1013.7
20180816091252 80 180 1.0 3.0 0.00 0.00 0.00 86 1013.8
20180816090252 80 181 0.0 2.0 0.00 0.00 0.00 86 1013.7
20180816085751 80 158 1.0 2.0 0.00 0.00 0.00 86 1013.7
20180816084752 80 176 0.0 2.0 0.00 0.00 0.00 85 1013.7
20180816084252 80 176 0.0 3.0 0.00 0.00 0.00 85 1013.6
20180816083751 80 202 1.0 3.0 0.00 0.00 0.00 85 1013.5
20180816083251 80 202 2.0 5.0 0.00 0.00 0.00 85 1013.4
20180816082752 80 180 2.0 6.0 0.00 0.00 0.00 85 1013.3
20180816082252 80 214 0.0 3.0 0.00 0.00 0.00 84 1013.2
20180816081752 81 203 1.0 3.0 0.00 0.00 0.00 84 1013.2
20180816080252 81 184 2.0 5.0 0.00 0.00 0.00 84 1013.2
20180816075751 81 199 2.0 6.0 0.00 0.00 0.00 84 1013.2
20180816075252 81 201 2.0 3.0 0.00 0.00 0.00 83 1013.2
20180816074752 81 181 1.0 5.0 0.00 0.00 0.00 83 1013.2
20180816074251 81 196 1.0 5.0 0.00 0.00 0.00 83 1013.3
20180816072752 82 213 2.0 8.0 0.00 0.00 0.00 82 1013.3
20180816071752 82 217 2.0 6.0 0.00 0.00 0.00 82 1013.3
20180816070752 82 176 1.0 3.0 0.00 0.00 0.00 81 1013.3
20180816070251 82 201 2.0 7.0 0.00 0.00 0.00 81 1013.3
20180816065751 82 180 2.0 3.0 0.00 0.00 0.00 81 1013.3
20180816065252 82 200 1.0 6.0 0.00 0.00 0.00 80 1013.3
20180816064751 82 208 2.0 5.0 0.00 0.00 0.00 80 1013.3
20180816064252 82 169 2.0 3.0 0.00 0.00 0.00 80 1013.2
20180816063752 82 181 3.0 7.0 0.00 0.00 0.00 80 1013.2
20180816063252 82 215 2.0 6.0 0.00 0.00 0.00 80 1013.2
20180816062252 83 168 2.0 8.0 0.00 0.00 0.00 80 1013.2
20180816061752 83 251 1.0 6.0 0.00 0.00 0.00 79 1013.2
20180816061251 83 187 2.0 8.0 0.00 0.00 0.00 79 1013.2
20180816060752 83 205 3.0 10.0 0.00 0.00 0.00 79 1013.2
20180816060251 83 197 2.0 5.0 0.00 0.00 0.00 79 1013.3
20180816055752 83 148 2.0 3.0 0.00 0.00 0.00 79 1013.3
20180816055252 83 139 2.0 3.0 0.00 0.00 0.00 79 1013.3
20180816053752 83 207 1.0 3.0 0.00 0.00 0.00 79 1013.3
20180816053252 83 205 1.0 3.0 0.00 0.00 0.00 78 1013.4
20180816052752 83 133 1.0 3.0 0.00 0.00 0.00 78 1013.3
20180816052252 83 136 1.0 3.0 0.00 0.00 0.00 78 1013.4
20180816051752 83 158 2.0 6.0 0.00 0.00 0.00 78 1013.3
20180816051252 83 206 2.0 5.0 0.00 0.00 0.00 78 1013.3
20180816050252 83 153 1.0 3.0 0.00 0.00 0.00 77 1013.3
20180816045752 83 142 1.0 2.0 0.00 0.00 0.00 76 1013.3
20180816045252 84 161 1.0 2.0 0.00 0.00 0.00 76 1013.3
20180816044753 84 161 1.0 3.0 0.00 0.00 0.00 75 1013.3
20180816044252 84 168 0.0 3.0 0.00 0.00 0.00 75 1013.2
20180816043752 84 171 0.0 1.0 0.00 0.00 0.00 75 1013.2
20180816043252 84 171 0.0 2.0 0.00 0.00 0.00 74 1013.2
20180816042752 84 202 0.0 2.0 0.00 0.00 0.00 74 1013.1
20180816042252 84 202 0.0 1.0 0.00 0.00 0.00 73 1013.1
20180816041752 85 202 1.0 2.0 0.00 0.00 0.00 73 1012.9
20180816040752 85 232 1.0 3.0 0.00 0.00 0.00 73 1012.9
20180816040252 85 200 1.0 3.0 0.00 0.00 0.00 72 1012.9
20180816035753 85 187 1.0 3.0 0.00 0.00 0.00 72 1012.8
20180816035253 85 187 1.0 3.0 0.00 0.00 0.00 72 1012.7
20180816034753 85 150 2.0 5.0 0.00 0.00 0.00 72 1012.7
20180816033753 85 162 1.0 2.0 0.00 0.00 0.00 71 1012.6
20180816033252 85 172 1.0 2.0 0.00 0.00 0.00 71 1012.5
20180816032752 85 180 1.0 3.0 0.00 0.00 0.00 70 1012.5
20180816031753 85 178 1.0 2.0 0.00 0.00 0.00 69 1012.3
20180816031253 85 168 0.0 3.0 0.00 0.00 0.00 69 1012.3
20180816030752 85 168 1.0 3.0 0.00 0.00 0.00 69 1012.2
20180816030253 85 171 1.0 3.0 0.00 0.00 0.00 68 1012.1
20180816024752 86 167 0.0 3.0 0.00 0.00 0.00 67 1012.1
20180816023753 87 167 0.0 1.0 0.00 0.00 0.00 66 1012.0
20180816023252 87 167 0.0 1.0 0.00 0.00 0.00 65 1012.0
20180816022753 87 167 0.0 3.0 0.00 0.00 0.00 65 1012.0
20180816022253 87 167 0.0 0.0 0.00 0.00 0.00 65 1011.9
20180816021753 87 167 0.0 1.0 0.00 0.00 0.00 64 1011.9
20180816021253 88 167 0.0 0.0 0.00 0.00 0.00 63 1011.8
20180816020753 88 167 1.0 3.0 0.00 0.00 0.00 63 1011.8
20180816020253 88 167 1.0 3.0 0.00 0.00 0.00 62 1011.8
20180816015752 89 167 0.0 0.0 0.00 0.00 0.00 62 1011.8
20180816015252 89 167 0.0 0.0 0.00 0.00 0.00 61 1011.7
20180816014752 89 167 0.0 1.0 0.00 0.00 0.00 60 1011.6
20180816014252 89 167 0.0 1.0 0.00 0.00 0.00 59 1011.6
20180816012253 90 160 1.0 3.0 0.00 0.00 0.00 58 1011.5
20180816011753 91 144 1.0 2.0 0.00 0.00 0.00 57 1011.5
20180816011252 91 144 1.0 2.0 0.00 0.00 0.00 56 1011.5
20180816004753 92 149 1.0 3.0 0.00 0.00 0.00 54 1011.4
20180816004252 92 180 1.0 3.0 0.00 0.00 0.00 53 1011.4
20180816003753 92 188 2.0 5.0 0.00 0.00 0.00 53 1011.3
20180816003253 93 177 3.0 5.0 0.00 0.00 0.00 52 1011.3
20180816002752 93 167 3.0 9.0 0.00 0.00 0.00 52 1011.2
20180816002252 93 193 3.0 8.0 0.00 0.00 0.00 52 1011.2
20180816001753 93 198 2.0 12.0 0.00 0.00 0.00 51 1011.2
20180816001253 94 204 3.0 10.0 0.00 0.00 0.00 51 1011.3
20180816000753 94 177 4.0 6.0 0.00 0.00 0.00 51 1011.3
20180815235753 94 199 1.0 3.0 0.00 0.00 0.00 51 1011.3
20180815235252 94 212 1.0 3.0 0.00 0.00 0.00 51 1011.3
20180815234753 94 166 2.0 9.0 0.00 0.00 0.00 50 1011.4
20180815234253 95 179 1.0 7.0 0.00 0.00 0.00 50 1011.4
20180815233753 95 158 3.0 7.0 0.00 0.00 0.00 49 1011.3
20180815233252 95 222 3.0 8.0 0.00 0.00 0.00 48 1011.4
20180815232753 95 203 3.0 6.0 0.00 0.00 0.00 48 1011.4
20180815231753 96 158 2.0 5.0 0.00 0.00 0.00 49 1011.6
20180815231253 96 148 2.0 5.0 0.00 0.00 0.00 48 1011.5
20180815230753 96 162 2.0 3.0 0.00 0.00 0.00 49 1011.5
20180815230253 96 97 2.0 8.0 0.00 0.00 0.00 49 1011.5
20180815225753 96 155 3.0 9.0 0.00 0.00 0.00 49 1011.6
20180815225253 96 212 2.0 3.0 0.00 0.00 0.00 48 1011.6
20180815222753 97 145 2.0 8.0 0.00 0.00 0.00 45 1011.6
20180815222252 97 202 3.0 8.0 0.00 0.00 0.00 45 1011.6
20180815221753 97 201 1.0 5.0 0.00 0.00 0.00 45 1011.7
20180815221253 98 192 3.0 6.0 0.00 0.00 0.00 44 1011.8
20180815220753 98 125 4.0 10.0 0.00 0.00 0.00 44 1011.7
20180815220253 99 214 5.0 9.0 0.00 0.00 0.00 44 1011.8
20180815214753 98 208 3.0 6.0 0.00 0.00 0.00 44 1011.9
20180815214253 98 180 3.0 10.0 0.00 0.00 0.00 44 1011.9
20180815213753 98 134 3.0 9.0 0.00 0.00 0.00 44 1011.9
20180815211253 99 185 5.0 8.0 0.00 0.00 0.00 43 1012.3
20180815210753 99 156 4.0 9.0 0.00 0.00 0.00 43 1012.4
20180815205753 99 200 4.0 9.0 0.00 0.00 0.00 43 1012.5
20180815205253 99 197 5.0 12.0 0.00 0.00 0.00 43 1012.5
20180815204753 99 194 3.0 12.0 0.00 0.00 0.00 45 1012.7
20180815204253 99 190 5.0 9.0 0.00 0.00 0.00 44 1012.7
20180815203753 99 166 4.0 15.0 0.00 0.00 0.00 44 1012.7
20180815203253 99 211 3.0 12.0 0.00 0.00 0.00 44 1012.7
20180815202753 99 234 5.0 13.0 0.00 0.00 0.00 44 1012.8
20180815202254 99 214 5.0 13.0 0.00 0.00 0.00 43 1012.9
20180815201753 99 182 4.0 8.0 0.00 0.00 0.00 44 1013.0
20180815201253 99 155 2.0 8.0 0.00 0.00 0.00 43 1013.1
20180815200753 98 160 3.0 8.0 0.00 0.00 0.00 44 1013.1
20180815195253 97 148 1.0 5.0 0.00 0.00 0.00 46 1013.2
20180815194753 97 232 4.0 10.0 0.00 0.00 0.00 45 1013.4
20180815193753 98 212 3.0 10.0 0.00 0.00 0.00 45 1013.5
20180815192754 98 193 6.0 12.0 0.00 0.00 0.00 44 1013.5
20180815192253 97 197 4.0 12.0 0.00 0.00 0.00 46 1013.6
20180815191753 97 181 5.0 9.0 0.00 0.00 0.00 45 1013.6
20180815191253 97 207 3.0 6.0 0.00 0.00 0.00 47 1013.6
20180815190753 97 9 2.0 8.0 0.00 0.00 0.00 46 1013.7
20180815190253 97 163 3.0 8.0 0.00 0.00 0.00 46 1013.7
20180815185754 97 224 4.0 10.0 0.00 0.00 0.00 48 1013.7
20180815184753 96 289 2.0 6.0 0.00 0.00 0.00 47 1013.8
20180815183753 96 258 5.0 12.0 0.00 0.00 0.00 49 1013.9
20180815182253 94 206 3.0 8.0 0.00 0.00 0.00 53 1014.1
20180815181753 94 262 3.0 7.0 0.00 0.00 0.00 54 1014.1
20180815181253 94 244 5.0 10.0 0.00 0.00 0.00 53 1014.2
20180815180253 94 239 3.0 9.0 0.00 0.00 0.00 54 1014.1
20180815175753 94 201 4.0 8.0 0.00 0.00 0.00 52 1014.3
20180815172254 94 204 3.0 10.0 0.00 0.00 0.00 52 1014.4
20180815171754 94 221 3.0 9.0 0.00 0.00 0.00 52 1014.4
20180815171254 94 196 3.0 12.0 0.00 0.00 0.00 55 1014.4
20180815170754 94 181 3.0 9.0 0.00 0.00 0.00 54 1014.5
20180815165754 94 231 2.0 9.0 0.00 0.00 0.00 56 1014.4
20180815165254 94 192 1.0 3.0 0.00 0.00 0.00 55 1014.3
20180815164753 94 181 6.0 10.0 0.00 0.00 0.00 55 1014.4
20180815163753 93 204 5.0 12.0 0.00 0.00 0.00 55 1014.4
20180815163253 93 269 3.0 12.0 0.00 0.00 0.00 57 1014.5
20180815162754 93 208 3.0 10.0 0.00 0.00 0.00 59 1014.5
20180815161254 92 245 5.0 13.0 0.00 0.00 0.00 60 1014.5
20180815160754 91 186 5.0 12.0 0.00 0.00 0.00 60 1014.3
20180815160254 90 197 3.0 13.0 0.00 0.00 0.00 63 1014.5
20180815155754 90 199 4.0 14.0 0.00 0.00 0.00 62 1014.5
20180815155253 89 217 3.0 10.0 0.00 0.00 0.00 63 1014.5
20180815154253 89 195 5.0 12.0 0.00 0.00 0.00 63 1014.5
20180815153254 89 217 6.0 12.0 0.00 0.00 0.00 64 1014.6
20180815152754 89 357 3.0 8.0 0.00 0.00 0.00 66 1014.6
20180815152254 89 286 3.0 8.0 0.00 0.00 0.00 67 1014.7
20180815151753 88 258 4.0 12.0 0.00 0.00 0.00 69 1014.6
20180815151254 88 317 3.0 6.0 0.00 0.00 0.00 72 1014.5
20180815150755 87 229 4.0 12.0 0.00 0.00 0.00 71 1014.5
20180815150254 87 172 2.0 7.0 0.00 0.00 0.00 74 1014.6
20180815145754 86 259 3.0 9.0 0.00 0.00 0.00 76 1014.5
20180815145253 85 204 2.0 6.0 0.00 0.00 0.00 77 1014.5
20180815144754 85 251 5.0 12.0 0.00 0.00 0.00 77 1014.6
20180815144254 84 181 5.0 9.0 0.00 0.00 0.00 78 1014.5
20180815141755 82 187 5.0 10.0 0.00 0.00 0.00 83 1014.5
20180815141254 82 178 4.0 9.0 0.00 0.00 0.00 84 1014.5
20180815140754 81 232 3.0 7.0 0.00 0.00 0.00 85 1014.5
20180815140254 81 177 3.0 8.0 0.00 0.00 0.00 86 1014.6
20180815134754 79 207 3.0 7.0 0.00 0.00 0.00 89 1014.6
20180815134254 79 226 5.0 9.0 0.00 0.00 0.00 90 1014.6
20180815133754 79 302 2.0 7.0 0.00 0.00 0.00 91 1014.6
20180815132754 78 203 2.0 3.0 0.00 0.00 0.00 93 1014.6
20180815132254 77 138 1.0 5.0 0.00 0.00 0.00 93 1014.5
20180815131754 77 193 1.0 3.0 0.00 0.00 0.00 94 1014.5
20180815130254 76 181 2.0 5.0 0.00 0.00 0.00 94 1014.4
20180815125754 76 210 2.0 3.0 0.00 0.00 0.00 94 1014.3
20180815124754 76 195 0.0 1.0 0.00 0.00 0.00 94 1014.3
20180815124254 76 195 0.0 1.0 0.00 0.00 0.00 94 1014.3
20180815123755 76 190 1.0 3.0 0.00 0.00 0.00 94 1014.3
20180815123254 76 160 0.0 1.0 0.00 0.00 0.00 94 1014.2
20180815122754 76 159 0.0 0.0 0.00 0.00 0.00 94 1014.2
20180815122254 76 159 0.0 0.0 0.00 0.00 0.00 93 1014.1